Regional Weather Roundup
Issued by NWS

Home | Current Version | Previous Version | Graphics & Text | Print | Product List | Glossary On
Versions: 1 2 3 4 5 6 7 8 9 10 11 12 13 14 15 16 17 18 19 20 21 22 23 24 25 26 27 28 29 30 31 32 33 34 35 36 37 38 39 40 41 42 43 44 45 46 47 48 49 50
000
ASUS45 KSLC 241910
RWRUT

UTAH REGIONAL WEATHER ROUNDUP
NATIONAL WEATHER SERVICE SALT LAKE CITY UT
100 PM MDT THU JUL 24 2014

UTZ001>011-023>025-242000-

NORTHERN UTAH

CITY           SKY/WX    TMP DP  RH WIND       PRES   REMARKS
HILL AFB       SUNNY     87  42  20 W12       30.09F
LOGAN          NOT AVBL
OGDEN          SUNNY     89  42  19 N10       30.06F
PROVO AIRPORT  MOSUNNY   93  43  17 SE9       30.07F
SALT LAKE CITY MOSUNNY   90  41  18 W15G22    30.03F
VERNAL         CLOUDY    85  48  27 SW10      30.17F
WENDOVER       SUNNY     90  30  12 E9        30.07F
HEBER CITY     MOSUNNY   90  34  13 SW25G31   30.13F
WEST JORDAN    SUNNY     91  52  25 NW17      30.07S

$$

UTZ012>022-026-027-242000-

SOUTHERN UTAH

CITY           SKY/WX    TMP DP  RH WIND       PRES   REMARKS
BRYCE CANYON   PTSUNNY   79  36  21 S9G22     30.38F
CEDAR CITY     MOSUNNY   90  27  10 S20G25    30.18F
MILFORD        SUNNY     97  27   8 SW24G35   30.09F HX  91
MOAB/CYNLANDS  MOSUNNY   92  47  21 SW12G20   30.11F
PRICE          SUNNY     86  48  26 S9        30.22F
ST GEORGE      PTCLDY   100  43  14 S5        29.98F HX  96
KANAB            N/A     93  36  13 SW9G16    30.20F

$$

REGIONAL REPORTS     COLORADO/ARIZONA

CITY           SKY/WX    TMP DP  RH WIND       PRES   REMARKS
CRAIG, CO      TSTM      66  57  72 SW35G49   30.28S
GRAND JUNCTION PTSUNNY   87  49  26 E6        30.15F
RIFLE          CLOUDY    84  48  28 VRB3      30.22F
MONTROSE       PTSUNNY   82  54  37 W12       30.26F
CORTEZ         MOSUNNY   88  49  25 W8        30.26F
PAGE, AZ       PTSUNNY   94  52  24 N8        30.11F HX  91
GRAND CANYON   CLOUDY    81  47  30 VRB5      30.33F
KINGMAN        MOSUNNY  101  45  15 SW14G20   30.02F HX  97
FLAGSTAFF      PTSUNNY   79  49  34 VRB7      30.36F

$$

REGIONAL REPORTS    NEVADA/IDAHO/WYOMING

CITY           SKY/WX    TMP DP  RH WIND       PRES   REMARKS
LAS VEGAS, NV  MOSUNNY  106  27   6 S12       29.84F HX  98
ELY            SUNNY     88  19   8 SW8       30.18F
ELKO           SUNNY     83  27  13 NW8G17    30.17F
POCATELLO, ID  SUNNY     77  42  28 W24G31    30.16S
BURLEY         SUNNY     71  42  35 W14G25    30.19S
EVANSTON, WY   SUNNY     84  42  22 SW22G30   30.24F
ROCK SPRINGS   CLOUDY    83  43  24 SW25G35   30.21F

$$



USA.gov is the U.S. government's official web portal to all federal, state and local government web resources and services.